Regional Weather Roundup
Issued by NWS

Home | Current Version | Previous Version | Text Only | Print | Product List | Glossary On
Versions: 1 2 3 4 5 6 7 8 9 10 11 12 13 14 15 16 17 18 19 20 21 22 23 24 25 26 27 28 29 30 31 32 33 34 35 36 37 38 39 40 41 42 43 44 45 46 47 48 49 50
596
ASUS43 KMKX 231200
RWRWI

WISCONSIN REGIONAL WEATHER ROUNDUP
NATIONAL WEATHER SERVICE MILWAUKEE/SULLIVAN WI
700 AM CDT FRI JUN 23 2017

NOTE: "FAIR" INDICATES FEW OR NO CLOUDS BELOW 12,000 FEET WITH NO
SIGNIFICANT WEATHER AND/OR OBSTRUCTIONS TO VISIBILITY.

WIZ001-002-006>008-014>016-023>028-231300-
NORTHWEST WISCONSIN

CITY           SKY/WX    TMP DP  RH WIND       PRES   REMARKS
SUPERIOR ARPT  NOT AVBL
ASHLAND        SUNNY     57  51  80 SW8       29.65S
6HR MIN TEMP:  49; 6HR MAX TEMP:  57;

HAYWARD        SUNNY     56  52  86 SW3       29.69R
6HR MIN TEMP:  46; 6HR MAX TEMP:  56;

SIREN          SUNNY     56  50  79 NW5       29.70S
CUMBERLAND     SUNNY     55  50  82 NW5       29.70S
RICE LAKE      SUNNY     56  55  94 CALM      29.71S
6HR MIN TEMP:  53; 6HR MAX TEMP:  62;

CHETEK         SUNNY     55  55 100 NW5       29.70S
LADYSMITH      SUNNY     55  54  97 CALM      29.71R
EAU CLAIRE     NOT AVBL
MENOMONIE      SUNNY     59  57  92 SW3       29.72R
6HR MIN TEMP:  56; 6HR MAX TEMP:  63;

NEW RICHMOND   SUNNY     56  55  94 W7        29.72R
OSCEOLA        SUNNY     58  52  82 W7        29.75R
$$

WIZ003>005-009-010-017-018-231300-
NORTH CENTRAL WISCONSIN

CITY           SKY/WX    TMP DP  RH WIND       PRES   REMARKS
MANITOWISH WTR SUNNY     53  53 100 W5        29.67R
ARBOR VITAE    SUNNY     57  56  97 S3        29.67R
WOODRUFF       SUNNY     57  56  97 S3        29.67R
RHINELANDER    SUNNY     58  57  97 SW5       29.68S
6HR MIN TEMP:  48; 6HR MAX TEMP:  59;

EAGLE RIVER    MOSUNNY   56  56 100 CALM      29.67S
LAND O LAKES   SUNNY     56  56 100 CALM      29.67F
6HR MIN TEMP:  47; 6HR MAX TEMP:  59; 6HR PCP:  0.01;

PHILLIPS       SUNNY     56  55  96 CALM      29.68R
TOMAHAWK       NOT AVBL
MEDFORD        SUNNY     57  55  95 SW5       29.71S
MERRILL        SUNNY     58  58 100 CALM      29.70S
6HR MIN TEMP:  53; 6HR MAX TEMP:  61;

$$

WIZ029-030-035-036-043>047-231300-
CENTRAL WISCONSIN

CITY           SKY/WX    TMP DP  RH WIND       PRES   REMARKS
WAUSAU         SUNNY     60  58  92 CALM      29.68F
6HR MIN TEMP:  56; 6HR MAX TEMP:  63;

MOSINEE        MOSUNNY   59  59 100 SW5       29.71F
MARSHFIELD     SUNNY     60  58  92 SW5       29.70F
6HR MIN TEMP:  55; 6HR MAX TEMP:  63;

STEVENS POINT  MOSUNNY   59  59 100 CALM      29.71S
WAUPACA        CLOUDY    64  64  97 W7        29.70F
6HR MIN TEMP:  62; 6HR MAX TEMP:  67; 6HR PCP:  0.01;

WAUTOMA        CLOUDY    62  62 100 W7        29.71S
6HR MIN TEMP:  60; 6HR MAX TEMP:  65; 6HR PCP:  0.12;

WISC RAPIDS    MOSUNNY   62  61  96 W3        29.71F
6HR MIN TEMP:  60; 6HR MAX TEMP:  66;

CAMP DOUGLAS   FOG       61  61 100 CALM      29.71F VSB 1
$$

WIZ011>013-019>022-031-037>040-048>050-231300-
NORTHEAST WISCONSIN

CITY           SKY/WX    TMP DP  RH WIND       PRES   REMARKS
ANTIGO         PTSUNNY   56  56 100 CALM      29.71S FOG
SHAWANO        CLOUDY    64  62  93 W6        29.68S
OCONTO         CLOUDY    62  60  93 W3        29.65S
STURGEON BAY     N/A     64  61  90 W8          N/A
6HR MIN TEMP:  63; 6HR MAX TEMP:  66;

GREEN BAY      CLOUDY    64  64 100 CALM      29.67F
6HR MIN TEMP:  63; 6HR MAX TEMP:  66; 6HR PCP:  0.01;

MANITOWOC      NOT AVBL
APPLETON       MOSUNNY   63  63 100 W8        29.68R
CLINTONVILLE   CLOUDY    61  61 100 W6        29.69S
OSHKOSH        CLOUDY    65  63  93 W8        29.68S
6HR MIN TEMP:  64; 6HR MAX TEMP:  67; 6HR PCP:  0.09;

$$

WIZ032>034-041-042-053>061-231300-
SOUTHWEST WISCONSIN

CITY           SKY/WX    TMP DP  RH WIND       PRES   REMARKS
LA CROSSE      SUNNY     64  64 100 S5        29.73S
6HR MIN TEMP:  60; 6HR MAX TEMP:  69;

SPARTA         FOG       57  57 100 CALM      29.73F VSB<1/4
VIROQUA        CLOUDY    60  60 100 W3        29.75S VSB<1/4
BOSCOBEL       FOG       61  61 100 SW3       29.74S VSB<1/4
6HR MIN TEMP:  59; 6HR MAX TEMP:  67; 6HR PCP:  0.24;

PRAIRIE DU CHI CLOUDY    64  63  96 CALM      29.74S
PLATTEVILLE    CLOUDY    63  63 100 NW3       29.74F
$$

WIZ056-057-062-063-064-067-068-231300-
SOUTH CENTRAL WISCONSIN

CITY           SKY/WX    TMP DP  RH WIND       PRES   REMARKS
REEDSBURG      FOG       62  62 100 CALM      29.72F VSB 1/2
BARABOO/DELLS  CLOUDY    63  61  95 W5        29.71F FOG
LONE ROCK      FOG       63  62  97 W3        29.72S VSB<1/4
6HR MIN TEMP:  60; 6HR MAX TEMP:  66; 6HR PCP:  0.22;

MINERAL POINT  CLOUDY    61  61 100 CALM      29.74S
MADISON        PTSUNNY   64  63  96 CALM      29.70S
6HR MIN TEMP:  61; 6HR MAX TEMP:  66; 6HR PCP:  0.83;

MIDDLETON      MOSUNNY   63  63 100 CALM      29.72S
WATERTOWN      PTSUNNY   62  62 100 CALM      29.69F
MONROE         PTSUNNY   63  61  94 NW5       29.72S
JANESVILLE     CLOUDY    64  64 100 NW6       29.69S
$$

WIZ051-052-058>065-066-070>072-231300-
SOUTHEAST WISCONSIN

CITY           SKY/WX    TMP DP  RH WIND       PRES   REMARKS
MILWAUKEE      CLOUDY    67  65  93 NW5       29.66F
6HR MIN TEMP:  65; 6HR MAX TEMP:  67; 6HR PCP:  1.42;

WAUKESHA       MOSUNNY   63  61  94 NW6       29.65S
MILWAUKEE/TIMM CLOUDY    63  59  88 W3        29.68F
RACINE         CLOUDY    65  63  93 N6        29.67F
6HR MIN TEMP:  64; 6HR MAX TEMP:  67; 6HR PCP:  0.91;

KENOSHA        CLOUDY    65  63  93 N3        29.66F
6HR MIN TEMP:  65; 6HR MAX TEMP:  76; 6HR PCP:  0.54;

FOND DU LAC    MOSUNNY   65  61  87 W8        29.69S
6HR MIN TEMP:  64; 6HR MAX TEMP:  67; 6HR PCP:  0.22;

SHEBOYGAN      CLOUDY    66  64  93 NW10      29.66S
6HR MIN TEMP:  65; 6HR MAX TEMP:  67; 6HR PCP:  0.37;

WEST BEND      PTSUNNY   63  63 100 NW5       29.68S
JUNEAU         CLOUDY    61  58  90 CALM      29.71F
$$

LSZ147-162-231300-
LAKE SUPERIOR

STATION/POSITION TIME  TEMP    WIND        PRES    WAVE
                       AIR SEA DIR/SP/G            HT/PER
                 (UTC) (F)     (DEG/KT/KT) (MB)    (FT/S)
W MID LAKE BUOY  1050   45 39  230/ 10/ 10 1002.1F   1
DEVILS ISLAND    1100   56     230/ 14/ 16 1002.9R
SAXON HARBOR     1140   61     200/  8/ 12 1003.4S
$$

LMZ867-665-643>646-231300-
LAKE MICHIGAN

STATION/POSITION TIME  TEMP    WIND        PRES    WAVE
                       AIR SEA DIR/SP/G            HT/PER
                 (UTC) (F)     (DEG/KT/KT) (MB)    (FT/S)
CHAMBERS ISLAND  1140   64     240/  4/  7 1003.7R
S GREEN BAY BUOY 1130   65     270/  8/ 10 1004.4R
N MID LAKE BUOY  1050   58 55  280/ 10/ 10 1003.6R   1/ 5
NORTHPORT PIER   1140   64     270/  5/  6 1003.4S
KEWAUNEE LAKESHO 1130   65     280/  4/  6 1003.7F
SHEBOYGAN LAKESH 1100   66     290/  8/ 10 1003.7F
PORT WASHINGTON  1130   65     290/  6/  9 1005.1S
MILWAUKEE LAKESH 1130   64     250/  3/  3   N/A
S MID LAKE BUOY  1050   62 61  360/ 10/ 12 1003.7F   2/ 4
KENOSHA   LAKESH 1100   65     360/  8/ 12 1005.1
$$

TC  - TEMPERATURE IN CELSIUS
VSB - VISIBILITY IN STATUTE MILES
WCI - WIND CHILL INDEX
HX  - HEAT INDEX





USA.gov is the U.S. government's official web portal to all federal, state and local government web resources and services.